Location: La Pernelle
(49.6188°N, 1.2999°W)
Time: 09:30:02
(UTC+00:00)

Meteor 2-20 - Pass Details

Date: 29 October 2021
Orbit: 939 x 958 km, 82.5° (Epoch: 08 December)

Event Time Altitude Azimuth Distance (km) Brightness Sun altitude
Rises 03:52:39 0° 152° (SSE) 3,604 7.6 -28.9°
Reaches altitude 10° 03:55:28 10° 141° (SE) 2,661 7.1 -28.5°
Maximum altitude 04:00:29 28° 85° (E) 1,696 6.4 -27.7°
Drops below altitude 10° 04:05:31 10° 29° (NNE) 2,668 7.3 -26.9°
Sets 04:08:20 0° 18° (NNE) 3,616 7.9 -26.5°
